TimeEDT,TemperatureF,Dew PointF,Humidity,Sea Level PressureIn,VisibilityMPH,Wind Direction,Wind SpeedMPH,Gust SpeedMPH,PrecipitationIn,Events,Conditions,WindDirDegrees,DateUTC
12:53 AM,52.0,33.1,49,30.20,10.0,WNW,11.5,-,N/A,,Clear,300,2013-05-26 04:53:00
1:53 AM,48.9,34.0,56,30.20,10.0,WNW,8.1,-,N/A,,Clear,300,2013-05-26 05:53:00
2:53 AM,48.0,35.1,61,30.20,10.0,WNW,6.9,-,N/A,,Clear,290,2013-05-26 06:53:00
3:53 AM,48.9,33.1,54,30.20,10.0,WSW,5.8,-,N/A,,Clear,250,2013-05-26 07:53:00
4:53 AM,46.0,34.0,63,30.21,10.0,Calm,Calm,-,N/A,,Clear,0,2013-05-26 08:53:00
5:53 AM,45.0,34.0,65,30.22,10.0,WNW,8.1,-,N/A,,Clear,300,2013-05-26 09:53:00
6:53 AM,48.0,34.0,58,30.24,10.0,NW,6.9,-,N/A,,Clear,310,2013-05-26 10:53:00
7:53 AM,51.1,35.1,54,30.25,10.0,NW,9.2,-,N/A,,Clear,310,2013-05-26 11:53:00
8:53 AM,55.0,35.1,47,30.25,10.0,NNW,13.8,-,N/A,,Clear,330,2013-05-26 12:53:00
9:53 AM,57.9,35.1,42,30.24,10.0,WNW,16.1,20.7,N/A,,Clear,300,2013-05-26 13:53:00
10:53 AM,60.1,34.0,38,30.23,10.0,WNW,16.1,24.2,N/A,,Clear,290,2013-05-26 14:53:00
11:53 AM,62.1,34.0,35,30.23,10.0,NW,9.2,23.0,N/A,,Clear,310,2013-05-26 15:53:00
12:53 PM,64.9,34.0,32,30.22,10.0,West,16.1,21.9,N/A,,Clear,270,2013-05-26 16:53:00
1:53 PM,66.9,32.0,27,30.19,10.0,West,12.7,21.9,N/A,,Clear,280,2013-05-26 17:53:00
2:53 PM,69.1,33.1,26,30.18,10.0,NW,17.3,21.9,N/A,,Clear,320,2013-05-26 18:53:00
3:53 PM,69.1,34.0,27,30.17,10.0,NW,17.3,-,N/A,,Clear,310,2013-05-26 19:53:00
4:53 PM,70.0,35.1,28,30.17,10.0,NW,16.1,27.6,N/A,,Clear,320,2013-05-26 20:53:00
5:53 PM,69.1,34.0,27,30.17,10.0,NW,16.1,24.2,N/A,,Clear,310,2013-05-26 21:53:00
6:53 PM,68.0,35.1,30,30.17,10.0,NW,16.1,21.9,N/A,,Clear,310,2013-05-26 22:53:00
7:53 PM,64.9,36.0,34,30.19,10.0,NW,9.2,-,N/A,,Clear,310,2013-05-26 23:53:00
8:53 PM,61.0,36.0,39,30.21,10.0,WNW,3.5,-,N/A,,Clear,290,2013-05-27 00:53:00
9:53 PM,59.0,36.0,42,30.22,10.0,West,3.5,-,N/A,,Clear,280,2013-05-27 01:53:00
10:53 PM,57.9,36.0,44,30.25,10.0,Calm,Calm,-,N/A,,Clear,0,2013-05-27 02:53:00
11:53 PM,57.9,35.1,42,30.26,10.0,Calm,Calm,-,N/A,,Clear,0,2013-05-27 03:53:00